• In Belgien
  • Länderverzeichnis
  • Für 7 Tage
  • Wassertemperatur
  • Satellitenkarten
  • Wetterkarte
  • Widgets
  • user-avatar
    Anmelden

    Stündliche Wetter Annaba

    Heute, 17 Dezember, Sonntag

    Zeit Temperatur Niederschläge Wind Luftdruck Luftfeuchtigkeit
    00:00 +8°C° 0,2 mm 6 m/S 763 mmHg 85%
    01:00 +8°C° 0 mm 5 m/S 763 mmHg 87%
    02:00 +8°C° 0,3 mm 5 m/S 763 mmHg 87%
    03:00 +8°C° 0,3 mm 6 m/S 763 mmHg 87%
    04:00 +8°C° 0,3 mm 6 m/S 763 mmHg 87%
    05:00 +7°C° 0,3 mm 5 m/S 763 mmHg 87%
    06:00 +7°C° 0,3 mm 5 m/S 764 mmHg 88%
    07:00 +7°C° 0,3 mm 5 m/S 764 mmHg 88%
    08:00 +8°C° 0,4 mm 5 m/S 764 mmHg 85%
    09:00 +9°C° 0,4 mm 5 m/S 765 mmHg 82%
    10:00 +9°C° 0,4 mm 6 m/S 765 mmHg 78%
    11:00 +10°C° 0,4 mm 6 m/S 765 mmHg 78%
    12:00 +10°C° 0,4 mm 7 m/S 765 mmHg 77%
    13:00 +10°C° 0,4 mm 7 m/S 765 mmHg 76%
    14:00 +10°C° 0,2 mm 8 m/S 765 mmHg 74%
    15:00 +10°C° 0,2 mm 8 m/S 766 mmHg 72%
    16:00 +10°C° 0,2 mm 9 m/S 766 mmHg 69%
    17:00 +8°C° 0,2 mm 9 m/S 766 mmHg 73%
    18:00 +7°C° 0,2 mm 8 m/S 766 mmHg 77%
    19:00 +7°C° 0,2 mm 8 m/S 767 mmHg 80%
    20:00 +7°C° 0,3 mm 8 m/S 767 mmHg 81%
    21:00 +7°C° 0,3 mm 8 m/S 767 mmHg 81%
    22:00 +7°C° 0,3 mm 8 m/S 768 mmHg 82%
    23:00 +7°C° 0,3 mm 8 m/S 768 mmHg 83%

    Morgen, 18 Dezember, Montag

    Zeit Temperatur Niederschläge Wind Luftdruck Luftfeuchtigkeit
    00:00 +7°C° 0,3 mm 8 m/S 768 mmHg 83%
    01:00 +7°C° 0,3 mm 8 m/S 768 mmHg 84%
    02:00 +7°C° 0,3 mm 8 m/S 768 mmHg 84%
    03:00 +7°C° 0,3 mm 8 m/S 768 mmHg 83%
    04:00 +7°C° 0,3 mm 8 m/S 768 mmHg 83%
    05:00 +8°C° 0,2 mm 7 m/S 768 mmHg 83%
    06:00 +8°C° 0,2 mm 7 m/S 768 mmHg 82%
    07:00 +8°C° 0,2 mm 7 m/S 769 mmHg 82%
    08:00 +9°C° 0,2 mm 7 m/S 769 mmHg 78%
    09:00 +10°C° 0,2 mm 7 m/S 769 mmHg 75%
    10:00 +10°C° 0,2 mm 7 m/S 769 mmHg 71%
    11:00 +11°C° 0,1 mm 7 m/S 769 mmHg 69%
    12:00 +11°C° 0,1 mm 7 m/S 769 mmHg 68%
    13:00 +11°C° 0,1 mm 7 m/S 768 mmHg 66%
    14:00 +11°C° 0,3 mm 7 m/S 768 mmHg 71%
    15:00 +10°C° 0,3 mm 6 m/S 767 mmHg 77%
    16:00 +10°C° 0,3 mm 6 m/S 767 mmHg 82%
    17:00 +10°C° 0,7 mm 6 m/S 767 mmHg 83%
    18:00 +10°C° 0,7 mm 6 m/S 767 mmHg 85%
    19:00 +9°C° 0,7 mm 7 m/S 767 mmHg 86%
    20:00 +9°C° 0,5 mm 7 m/S 767 mmHg 86%
    21:00 +9°C° 0,5 mm 7 m/S 767 mmHg 86%
    22:00 +9°C° 0,5 mm 7 m/S 766 mmHg 86%
    23:00 +8°C° 0,7 mm 7 m/S 766 mmHg 86%

    übermorgen, 19 Dezember, Dienstag

    Zeit Temperatur Niederschläge Wind Luftdruck Luftfeuchtigkeit
    00:00 +8°C° 0,7 mm 7 m/S 766 mmHg 86%
    01:00 +8°C° 0,7 mm 7 m/S 765 mmHg 86%
    02:00 +8°C° 1,4 mm 7 m/S 765 mmHg 86%
    03:00 +8°C° 1,4 mm 7 m/S 764 mmHg 85%
    04:00 +8°C° 1,4 mm 7 m/S 764 mmHg 85%
    05:00 +8°C° 1,2 mm 7 m/S 764 mmHg 85%
    06:00 +8°C° 1,2 mm 7 m/S 764 mmHg 85%
    07:00 +8°C° 1,2 mm 7 m/S 764 mmHg 86%
    08:00 +8°C° 0,9 mm 7 m/S 764 mmHg 85%
    09:00 +8°C° 0,9 mm 6 m/S 764 mmHg 84%
    10:00 +9°C° 0,9 mm 6 m/S 764 mmHg 83%
    11:00 +10°C° 0,3 mm 6 m/S 764 mmHg 78%
    12:00 +11°C° 0,3 mm 7 m/S 763 mmHg 72%
    13:00 +12°C° 0,3 mm 7 m/S 763 mmHg 67%
    14:00 +13°C° 0,6 mm 6 m/S 763 mmHg 68%
    15:00 +13°C° 0,6 mm 6 m/S 763 mmHg 70%
    16:00 +13°C° 0,6 mm 5 m/S 763 mmHg 71%
    17:00 +12°C° 0,5 mm 5 m/S 763 mmHg 75%
    18:00 +11°C° 0,5 mm 4 m/S 764 mmHg 78%
    19:00 +10°C° 0,5 mm 4 m/S 764 mmHg 82%
    20:00 +10°C° 0,5 mm 4 m/S 765 mmHg 83%
    21:00 +10°C° 0,5 mm 4 m/S 765 mmHg 84%
    22:00 +9°C° 0,5 mm 5 m/S 766 mmHg 86%
    23:00 +8°C° 0,5 mm 5 m/S 766 mmHg 87%

    20 Dezember, Mittwoch

    Zeit Temperatur Niederschläge Wind Luftdruck Luftfeuchtigkeit
    00:00 +8°C° 0,5 mm 5 m/S 766 mmHg 88%
    01:00 +8°C° 0,5 mm 5 m/S 767 mmHg 90%
    02:00 +8°C° 0,7 mm 5 m/S 767 mmHg 90%
    03:00 +8°C° 0,7 mm 5 m/S 767 mmHg 91%
    04:00 +9°C° 0,7 mm 6 m/S 767 mmHg 92%
    05:00 +9°C° 0,4 mm 5 m/S 767 mmHg 91%
    06:00 +9°C° 0,4 mm 5 m/S 767 mmHg 91%
    07:00 +9°C° 0,4 mm 5 m/S 767 mmHg 91%
    08:00 +9°C° 0,3 mm 5 m/S 768 mmHg 87%
    09:00 +11°C° 0,3 mm 4 m/S 768 mmHg 83%
    10:00 +12°C° 0,3 mm 4 m/S 769 mmHg 79%
    11:00 +12°C° 0,2 mm 4 m/S 769 mmHg 77%
    12:00 +12°C° 0,2 mm 4 m/S 769 mmHg 75%
    13:00 +12°C° 0,2 mm 4 m/S 768 mmHg 73%
    14:00 +12°C° 0,1 mm 3 m/S 768 mmHg 73%
    15:00 +12°C° 0,1 mm 3 m/S 768 mmHg 73%
    16:00 +12°C° 0,1 mm 3 m/S 768 mmHg 73%
    17:00 +11°C° 0,1 mm 3 m/S 769 mmHg 75%
    18:00 +10°C° 0,1 mm 2 m/S 769 mmHg 78%
    19:00 +10°C° 0,1 mm 1 m/S 769 mmHg 80%
    20:00 +10°C° 0,2 mm 1 m/S 770 mmHg 83%
    21:00 +10°C° 0,2 mm 1 m/S 770 mmHg 85%
    22:00 +10°C° 0,2 mm 1 m/S 770 mmHg 87%
    23:00 +10°C° 0,3 mm 1 m/S 770 mmHg 88%

    21 Dezember, Donnerstag

    Zeit Temperatur Niederschläge Wind Luftdruck Luftfeuchtigkeit
    00:00 +10°C° 0,3 mm 1 m/S 770 mmHg 88%
    01:00 +9°C° 0,3 mm 2 m/S 770 mmHg 89%
    02:00 +8°C° 0,3 mm 2 m/S 770 mmHg 89%
    03:00 +8°C° 0,3 mm 2 m/S 770 mmHg 90%
    04:00 +8°C° 0,3 mm 2 m/S 770 mmHg 90%
    05:00 +8°C° 0,2 mm 2 m/S 770 mmHg 91%
    06:00 +8°C° 0,2 mm 2 m/S 771 mmHg 91%
    07:00 +7°C° 0,2 mm 2 m/S 771 mmHg 92%
    08:00 +8°C° 0,1 mm 2 m/S 771 mmHg 88%
    09:00 +9°C° 0,1 mm 3 m/S 772 mmHg 84%
    10:00 +10°C° 0,1 mm 3 m/S 772 mmHg 80%
    11:00 +11°C° 0,2 mm 3 m/S 772 mmHg 77%
    12:00 +11°C° 0,2 mm 3 m/S 772 mmHg 74%
    13:00 +12°C° 0,2 mm 4 m/S 772 mmHg 72%
    14:00 +12°C° 0,1 mm 4 m/S 772 mmHg 72%
    15:00 +11°C° 0,1 mm 4 m/S 772 mmHg 72%
    16:00 +11°C° 0,1 mm 3 m/S 772 mmHg 72%
    17:00 +11°C° 0 mm 3 m/S 773 mmHg 75%
    18:00 +10°C° 0 mm 3 m/S 773 mmHg 79%
    19:00 +9°C° 0 mm 2 m/S 774 mmHg 83%
    20:00 +9°C° 0 mm 2 m/S 774 mmHg 83%
    21:00 +8°C° 0 mm 2 m/S 774 mmHg 84%
    22:00 +9°C° 0 mm 1 m/S 774 mmHg 84%
    23:00 +8°C° 0 mm 2 m/S 774 mmHg 84%

    22 Dezember, Freitag

    Zeit Temperatur Niederschläge Wind Luftdruck Luftfeuchtigkeit
    00:00 +8°C° 0 mm 2 m/S 774 mmHg 85%
    01:00 +8°C° 0 mm 2 m/S 774 mmHg 85%
    02:00 +8°C° 0 mm 2 m/S 774 mmHg 85%
    03:00 +8°C° 0 mm 3 m/S 773 mmHg 84%
    04:00 +7°C° 0 mm 3 m/S 773 mmHg 84%
    05:00 +7°C° 0 mm 3 m/S 773 mmHg 85%
    06:00 +7°C° 0 mm 3 m/S 773 mmHg 85%
    07:00 +7°C° 0 mm 3 m/S 773 mmHg 85%
    08:00 +8°C° 0 mm 3 m/S 773 mmHg 81%
    09:00 +9°C° 0 mm 3 m/S 773 mmHg 78%
    10:00 +10°C° 0 mm 3 m/S 772 mmHg 74%
    11:00 +11°C° 0 mm 4 m/S 772 mmHg 74%
    12:00 +12°C° 0 mm 4 m/S 771 mmHg 73%
    13:00 +12°C° 0 mm 5 m/S 771 mmHg 73%
    14:00 +12°C° 0,1 mm 5 m/S 770 mmHg 74%
    15:00 +12°C° 0,1 mm 5 m/S 770 mmHg 75%
    16:00 +12°C° 0,1 mm 5 m/S 770 mmHg 77%
    17:00 +10°C° 0,1 mm 5 m/S 770 mmHg 80%
    18:00 +10°C° 0,1 mm 5 m/S 770 mmHg 84%
    19:00 +9°C° 0,1 mm 6 m/S 770 mmHg 87%
    20:00 +9°C° 0,2 mm 6 m/S 770 mmHg 87%
    21:00 +9°C° 0,2 mm 6 m/S 769 mmHg 88%
    22:00 +9°C° 0,2 mm 6 m/S 769 mmHg 88%
    23:00 +10°C° 0,3 mm 6 m/S 769 mmHg 87%
    Mehr zeigen